{"data":{"norad_id":50193,"epoch":"2026-05-25T00:28:10.715808Z","epoch_age_seconds":66545,"freshness":"FRESH","line1":"1 50193U 21125AP  26145.01956847  .00000417  00000+0  44295-4 0  9996","line2":"2 50193  53.2154 256.4615 0001152  90.6197 269.4927 15.08838009248308","mean_motion":15.08838009,"eccentricity":0.0001152,"inclination_deg":53.2154,"raan_deg":256.4615,"arg_perigee_deg":90.6197,"mean_anomaly_deg":269.4927,"bstar":4.4295e-5,"rev_number":24830,"period_min":95.437680613201,"perigee_km":538.9525341394,"apogee_km":540.54641518316,"semimajor_km":6917.8864746613,"source":"CELESTRAK","updated_at":"2026-05-25T13:38:16.871525Z"}}